Year,Month,Day,Hour,Minute,Value (Times are PST for temperature in C)
2012,05,24,00,00,7.80
2012,05,24,00,01,7.80
2012,05,24,00,02,7.80
2012,05,24,00,03,7.80
2012,05,24,00,04,7.80
2012,05,24,00,05,7.80
2012,05,24,00,06,7.80
2012,05,24,00,07,7.70
2012,05,24,00,08,7.70
2012,05,24,00,09,7.70
2012,05,24,00,10,7.70
2012,05,24,00,11,7.70
2012,05,24,00,12,7.70
2012,05,24,00,13,7.60
2012,05,24,00,14,7.60
2012,05,24,00,15,7.60
2012,05,24,00,16,7.60
2012,05,24,00,17,7.60
2012,05,24,00,18,7.60
2012,05,24,00,19,7.50
2012,05,24,00,20,7.50
2012,05,24,00,21,7.50
2012,05,24,00,22,7.50
2012,05,24,00,23,7.50
2012,05,24,00,24,7.50
2012,05,24,00,25,7.50
2012,05,24,00,26,7.50
2012,05,24,00,27,7.50
2012,05,24,00,28,7.50
2012,05,24,00,29,7.40
2012,05,24,00,30,7.40
2012,05,24,00,31,7.40
2012,05,24,00,32,7.40
2012,05,24,00,33,7.40
2012,05,24,00,34,7.40
2012,05,24,00,35,7.40
2012,05,24,00,36,7.40
2012,05,24,00,37,7.40
2012,05,24,00,38,7.30
2012,05,24,00,39,7.30
2012,05,24,00,40,7.30
2012,05,24,00,41,7.30
2012,05,24,00,42,7.30
2012,05,24,00,43,7.30
2012,05,24,00,44,7.30
2012,05,24,00,45,7.30
2012,05,24,00,46,7.30
2012,05,24,00,47,7.20
2012,05,24,00,48,7.20
2012,05,24,00,49,7.20
2012,05,24,00,50,7.20
2012,05,24,00,51,7.10
2012,05,24,00,52,7.10
2012,05,24,00,53,7.10
2012,05,24,00,54,7.10
2012,05,24,00,55,7.10
2012,05,24,00,56,7.10
2012,05,24,00,57,7.10
2012,05,24,00,58,7.00
2012,05,24,00,59,7.00
2012,05,24,01,00,7.00
2012,05,24,01,01,7.00
2012,05,24,01,02,7.00
2012,05,24,01,03,7.00
2012,05,24,01,04,6.90
2012,05,24,01,05,6.90
2012,05,24,01,06,6.90
2012,05,24,01,07,6.90
2012,05,24,01,08,6.90
2012,05,24,01,09,6.80
2012,05,24,01,10,6.80
2012,05,24,01,11,6.80
2012,05,24,01,12,6.80
2012,05,24,01,13,6.80
2012,05,24,01,14,6.80
2012,05,24,01,15,6.90
2012,05,24,01,16,6.90
2012,05,24,01,17,6.90
2012,05,24,01,18,6.90
2012,05,24,01,19,6.90
2012,05,24,01,20,6.90
2012,05,24,01,21,6.90
2012,05,24,01,22,6.90
2012,05,24,01,23,6.90
2012,05,24,01,24,6.90
2012,05,24,01,25,6.90
2012,05,24,01,26,6.90
2012,05,24,01,27,6.90
2012,05,24,01,28,6.90
2012,05,24,01,29,6.90
2012,05,24,01,30,6.90
2012,05,24,01,31,7.00
2012,05,24,01,32,7.00
2012,05,24,01,33,7.10
2012,05,24,01,34,7.20
2012,05,24,01,35,7.30
2012,05,24,01,36,7.30
2012,05,24,01,37,7.30
2012,05,24,01,38,7.30
2012,05,24,01,39,7.30
2012,05,24,01,40,7.30
2012,05,24,01,41,7.30
2012,05,24,01,42,7.30
2012,05,24,01,43,7.30
2012,05,24,01,44,7.30
2012,05,24,01,45,7.30
2012,05,24,01,46,7.30
2012,05,24,01,47,7.20
2012,05,24,01,48,7.20
2012,05,24,01,49,7.20
2012,05,24,01,50,7.10
2012,05,24,01,51,7.10
2012,05,24,01,52,7.10
2012,05,24,01,53,7.00
2012,05,24,01,54,7.00
2012,05,24,01,55,7.00
2012,05,24,01,56,6.90
2012,05,24,01,57,6.90
2012,05,24,01,58,6.90
2012,05,24,01,59,6.90
2012,05,24,02,00,6.80
2012,05,24,02,01,6.80
2012,05,24,02,02,6.80
2012,05,24,02,03,6.80
2012,05,24,02,04,6.80
2012,05,24,02,05,6.80
2012,05,24,02,06,6.80
2012,05,24,02,07,6.80
2012,05,24,02,08,6.80
2012,05,24,02,09,6.70
2012,05,24,02,10,6.70
2012,05,24,02,11,6.70
2012,05,24,02,12,6.70
2012,05,24,02,13,6.70
2012,05,24,02,14,6.60
2012,05,24,02,15,6.60
2012,05,24,02,16,6.60
2012,05,24,02,17,6.60
2012,05,24,02,18,6.60
2012,05,24,02,19,6.50
2012,05,24,02,20,6.40
2012,05,24,02,21,6.40
2012,05,24,02,22,6.40
2012,05,24,02,23,6.40
2012,05,24,02,24,6.40
2012,05,24,02,25,6.40
2012,05,24,02,26,6.40
2012,05,24,02,27,6.40
2012,05,24,02,28,6.30
2012,05,24,02,29,6.30
2012,05,24,02,30,6.30
2012,05,24,02,31,6.30
2012,05,24,02,32,6.30
2012,05,24,02,33,6.30
2012,05,24,02,34,6.30
2012,05,24,02,35,6.30
2012,05,24,02,36,6.40
2012,05,24,02,37,6.40
2012,05,24,02,38,6.40
2012,05,24,02,39,6.40
2012,05,24,02,40,6.40
2012,05,24,02,41,6.40
2012,05,24,02,42,6.40
2012,05,24,02,43,6.40
2012,05,24,02,44,6.40
2012,05,24,02,45,6.40
2012,05,24,02,46,6.40
2012,05,24,02,47,6.40
2012,05,24,02,48,6.40
2012,05,24,02,49,6.40
2012,05,24,02,50,6.40
2012,05,24,02,51,6.40
2012,05,24,02,52,6.40
2012,05,24,02,53,6.40
2012,05,24,02,54,6.40
2012,05,24,02,55,6.40
2012,05,24,02,56,6.40
2012,05,24,02,57,6.50
2012,05,24,02,58,6.50
2012,05,24,02,59,6.60
2012,05,24,03,00,6.60
2012,05,24,03,01,6.60
2012,05,24,03,02,6.60
2012,05,24,03,03,6.60
2012,05,24,03,04,6.60
2012,05,24,03,05,6.60
2012,05,24,03,06,6.60
2012,05,24,03,07,6.70
2012,05,24,03,08,6.70
2012,05,24,03,09,6.70
2012,05,24,03,10,6.70
2012,05,24,03,11,6.70
2012,05,24,03,12,6.80
2012,05,24,03,13,6.80
2012,05,24,03,14,6.80
2012,05,24,03,15,6.80
2012,05,24,03,16,6.80
2012,05,24,03,17,6.70
2012,05,24,03,18,6.70
2012,05,24,03,19,6.70
2012,05,24,03,20,6.70
2012,05,24,03,21,6.60
2012,05,24,03,22,6.60
2012,05,24,03,23,6.60
2012,05,24,03,24,6.60
2012,05,24,03,25,6.60
2012,05,24,03,26,6.60
2012,05,24,03,27,6.60
2012,05,24,03,28,6.60
2012,05,24,03,29,6.60
2012,05,24,03,30,6.60
2012,05,24,03,31,6.50
2012,05,24,03,32,6.40
2012,05,24,03,33,6.40
2012,05,24,03,34,6.40
2012,05,24,03,35,6.40
2012,05,24,03,36,6.40
2012,05,24,03,37,6.40
2012,05,24,03,38,6.40
2012,05,24,03,39,6.40
2012,05,24,03,40,6.40
2012,05,24,03,41,6.40
2012,05,24,03,42,6.40
2012,05,24,03,43,6.40
2012,05,24,03,44,6.40
2012,05,24,03,45,6.40
2012,05,24,03,46,6.40
2012,05,24,03,47,6.40
2012,05,24,03,48,6.40
2012,05,24,03,49,6.40
2012,05,24,03,50,6.40
2012,05,24,03,51,6.40
2012,05,24,03,52,6.40
2012,05,24,03,53,6.40
2012,05,24,03,54,6.40
2012,05,24,03,55,6.40
2012,05,24,03,56,6.40
2012,05,24,03,57,6.40
2012,05,24,03,58,6.40
2012,05,24,03,59,6.40
2012,05,24,04,00,6.40
2012,05,24,04,01,6.40
2012,05,24,04,02,6.40
2012,05,24,04,03,6.40
2012,05,24,04,04,6.40
2012,05,24,04,05,6.40
2012,05,24,04,06,6.40
2012,05,24,04,07,6.40
2012,05,24,04,08,6.40
2012,05,24,04,09,6.30
2012,05,24,04,10,6.30
2012,05,24,04,11,6.30
2012,05,24,04,12,6.30
2012,05,24,04,13,6.30
2012,05,24,04,14,6.20
2012,05,24,04,15,6.20
2012,05,24,04,16,6.20
2012,05,24,04,17,6.20
2012,05,24,04,18,6.20
2012,05,24,04,19,6.20
2012,05,24,04,20,6.20
2012,05,24,04,21,6.20
2012,05,24,04,22,6.20
2012,05,24,04,23,6.20
2012,05,24,04,24,6.20
2012,05,24,04,25,6.20
2012,05,24,04,26,6.20
2012,05,24,04,27,6.30
2012,05,24,04,28,6.40
2012,05,24,04,29,6.60
2012,05,24,04,30,6.80
2012,05,24,04,31,6.90
2012,05,24,04,32,7.20
2012,05,24,04,33,7.40
2012,05,24,04,34,7.50
2012,05,24,04,35,7.60
2012,05,24,04,36,7.70
2012,05,24,04,37,7.80
2012,05,24,04,38,7.80
2012,05,24,04,39,7.80
2012,05,24,04,40,7.90
2012,05,24,04,41,7.90
2012,05,24,04,42,7.90
2012,05,24,04,43,8.00
2012,05,24,04,44,8.00
2012,05,24,04,45,8.10
2012,05,24,04,46,8.10
2012,05,24,04,47,8.20
2012,05,24,04,48,8.20
2012,05,24,04,49,8.20
2012,05,24,04,50,8.20
2012,05,24,04,51,8.20
2012,05,24,04,52,8.20
2012,05,24,04,53,8.20
2012,05,24,04,54,8.30
2012,05,24,04,55,8.30
2012,05,24,04,56,8.30
2012,05,24,04,57,8.40
2012,05,24,04,58,8.40
2012,05,24,04,59,8.50
2012,05,24,05,00,8.50
2012,05,24,05,01,8.50
2012,05,24,05,02,8.50
2012,05,24,05,03,8.50
2012,05,24,05,04,8.60
2012,05,24,05,05,8.60
2012,05,24,05,06,8.60
2012,05,24,05,07,8.60
2012,05,24,05,08,8.60
2012,05,24,05,09,8.60
2012,05,24,05,10,8.60
2012,05,24,05,11,8.60
2012,05,24,05,12,8.60
2012,05,24,05,13,8.60
2012,05,24,05,14,8.60
2012,05,24,05,15,8.60
2012,05,24,05,16,8.60
2012,05,24,05,17,8.70
2012,05,24,05,18,8.70
2012,05,24,05,19,8.70
2012,05,24,05,20,8.70
2012,05,24,05,21,8.70
2012,05,24,05,22,8.70
2012,05,24,05,23,8.70
2012,05,24,05,24,8.70
2012,05,24,05,25,8.70
2012,05,24,05,26,8.70
2012,05,24,05,27,8.70
2012,05,24,05,28,8.70
2012,05,24,05,29,8.70
2012,05,24,05,30,8.70
2012,05,24,05,31,8.70
2012,05,24,05,32,8.70
2012,05,24,05,33,8.70
2012,05,24,05,34,8.70
2012,05,24,05,35,8.70
2012,05,24,05,36,8.70
2012,05,24,05,37,8.70
2012,05,24,05,38,8.70
2012,05,24,05,39,8.70
2012,05,24,05,40,8.70
2012,05,24,05,41,8.70
2012,05,24,05,42,8.70
2012,05,24,05,43,8.70
2012,05,24,05,44,8.70
2012,05,24,05,45,8.70
2012,05,24,05,46,8.80
2012,05,24,05,47,8.80
2012,05,24,05,48,8.80
2012,05,24,05,49,8.80
2012,05,24,05,50,8.80
2012,05,24,05,51,8.80
2012,05,24,05,52,8.90
2012,05,24,05,53,8.90
2012,05,24,05,54,8.90
2012,05,24,05,55,8.90
2012,05,24,05,56,8.90
2012,05,24,05,57,8.90
2012,05,24,05,58,8.90
2012,05,24,05,59,8.90
2012,05,24,06,00,9.00
2012,05,24,06,01,9.00
2012,05,24,06,02,9.00
2012,05,24,06,03,9.00
2012,05,24,06,04,9.00
2012,05,24,06,05,9.00
2012,05,24,06,06,9.00
2012,05,24,06,07,9.00
2012,05,24,06,08,9.00
2012,05,24,06,09,9.00
2012,05,24,06,10,9.10
2012,05,24,06,11,9.10
2012,05,24,06,12,9.10
2012,05,24,06,13,9.10
2012,05,24,06,14,9.10
2012,05,24,06,15,9.10
2012,05,24,06,16,9.10
2012,05,24,06,17,9.10
2012,05,24,06,18,9.10
2012,05,24,06,19,9.10
2012,05,24,06,20,9.10
2012,05,24,06,21,9.10
2012,05,24,06,22,9.10
2012,05,24,06,23,9.10
2012,05,24,06,24,9.10
2012,05,24,06,25,9.10
2012,05,24,06,26,9.10
2012,05,24,06,27,9.10
2012,05,24,06,28,9.10
2012,05,24,06,29,9.10
2012,05,24,06,30,9.10
2012,05,24,06,31,9.10
2012,05,24,06,32,9.10
2012,05,24,06,33,9.20
2012,05,24,06,34,9.20
2012,05,24,06,35,9.20
2012,05,24,06,36,9.20
2012,05,24,06,37,9.20
2012,05,24,06,38,9.20
2012,05,24,06,39,9.20
2012,05,24,06,40,9.20
2012,05,24,06,41,9.20
2012,05,24,06,42,9.20
2012,05,24,06,43,9.20
2012,05,24,06,44,9.20
2012,05,24,06,45,9.20
2012,05,24,06,46,9.20
2012,05,24,06,47,9.20
2012,05,24,06,48,9.20
2012,05,24,06,49,9.20
2012,05,24,06,50,9.20
2012,05,24,06,51,9.20
2012,05,24,06,52,9.20
2012,05,24,06,53,9.10
2012,05,24,06,54,9.10
2012,05,24,06,55,9.10
2012,05,24,06,56,9.10
2012,05,24,06,57,9.10
2012,05,24,06,58,9.10
2012,05,24,06,59,9.10
2012,05,24,07,00,9.10
2012,05,24,07,01,9.10
2012,05,24,07,02,9.10
2012,05,24,07,03,9.10
2012,05,24,07,04,9.10
2012,05,24,07,05,9.10
2012,05,24,07,06,9.10
2012,05,24,07,07,9.10
2012,05,24,07,08,9.20
2012,05,24,07,09,9.20
2012,05,24,07,10,9.20
2012,05,24,07,11,9.20
2012,05,24,07,12,9.20
2012,05,24,07,13,9.20
2012,05,24,07,14,9.20
2012,05,24,07,15,9.20
2012,05,24,07,16,9.20
2012,05,24,07,17,9.20
2012,05,24,07,18,9.20
2012,05,24,07,19,9.20
2012,05,24,07,20,9.20
2012,05,24,07,21,9.20
2012,05,24,07,22,9.20
2012,05,24,07,23,9.20
2012,05,24,07,24,9.20
2012,05,24,07,25,9.20
2012,05,24,07,26,9.20
2012,05,24,07,27,9.20
2012,05,24,07,28,9.20
2012,05,24,07,29,9.20
2012,05,24,07,30,9.20
2012,05,24,07,31,9.20
2012,05,24,07,32,9.20
2012,05,24,07,33,9.20
2012,05,24,07,34,9.20
2012,05,24,07,35,9.20
2012,05,24,07,36,9.20
2012,05,24,07,37,9.20
2012,05,24,07,38,9.20
2012,05,24,07,39,9.20
2012,05,24,07,40,9.20
2012,05,24,07,41,9.20
2012,05,24,07,42,9.20
2012,05,24,07,43,9.20
2012,05,24,07,44,9.20
2012,05,24,07,45,9.20
2012,05,24,07,46,9.20
2012,05,24,07,47,9.30
2012,05,24,07,48,9.30
2012,05,24,07,49,9.30
2012,05,24,07,50,9.30
2012,05,24,07,51,9.30
2012,05,24,07,52,9.40
2012,05,24,07,53,9.40
2012,05,24,07,54,9.40
2012,05,24,07,55,9.40
2012,05,24,07,56,9.40
2012,05,24,07,57,9.40
2012,05,24,07,58,9.40
2012,05,24,07,59,9.40
2012,05,24,08,00,9.40
2012,05,24,08,01,9.40
2012,05,24,08,02,9.40
2012,05,24,08,03,9.40
2012,05,24,08,04,9.40
2012,05,24,08,05,9.40
2012,05,24,08,06,9.40
2012,05,24,08,07,9.40
2012,05,24,08,08,9.50
2012,05,24,08,09,9.50
2012,05,24,08,10,9.50
2012,05,24,08,11,9.50
2012,05,24,08,12,9.50
2012,05,24,08,13,9.50
2012,05,24,08,14,9.50
2012,05,24,08,15,9.60
2012,05,24,08,16,9.60
2012,05,24,08,17,9.60
2012,05,24,08,18,9.60
2012,05,24,08,19,9.60
2012,05,24,08,20,9.60
2012,05,24,08,21,9.60
2012,05,24,08,22,9.70
2012,05,24,08,23,9.70
2012,05,24,08,24,9.70
2012,05,24,08,25,9.70
2012,05,24,08,26,9.70
2012,05,24,08,27,9.70
2012,05,24,08,28,9.70
2012,05,24,08,29,9.70
2012,05,24,08,30,9.80
2012,05,24,08,31,9.80
2012,05,24,08,32,9.80
2012,05,24,08,33,9.80
2012,05,24,08,34,9.80
2012,05,24,08,35,9.80
2012,05,24,08,36,9.80
2012,05,24,08,37,9.80
2012,05,24,08,38,9.80
2012,05,24,08,39,9.90
2012,05,24,08,40,9.90
2012,05,24,08,41,9.90
2012,05,24,08,42,9.90
2012,05,24,08,43,9.90
2012,05,24,08,44,9.90
2012,05,24,08,45,9.90
2012,05,24,08,46,9.90
2012,05,24,08,47,9.90
2012,05,24,08,48,10.00
2012,05,24,08,49,10.10
2012,05,24,08,50,10.10
2012,05,24,08,51,10.10
2012,05,24,08,52,10.20
2012,05,24,08,53,10.20
2012,05,24,08,54,10.10
2012,05,24,08,55,10.10
2012,05,24,08,56,10.20
2012,05,24,08,57,10.20
2012,05,24,08,58,10.20
2012,05,24,08,59,10.20
2012,05,24,09,00,10.20
2012,05,24,09,01,10.30
2012,05,24,09,02,10.20
2012,05,24,09,03,10.30
2012,05,24,09,04,10.30
2012,05,24,09,05,10.30
2012,05,24,09,06,10.30
2012,05,24,09,07,10.30
2012,05,24,09,08,10.30
2012,05,24,09,09,10.40
2012,05,24,09,10,10.40
2012,05,24,09,11,10.40
2012,05,24,09,12,10.40
2012,05,24,09,13,10.50
2012,05,24,09,14,10.60
2012,05,24,09,15,10.60
2012,05,24,09,16,10.60
2012,05,24,09,17,10.60
2012,05,24,09,18,10.60
2012,05,24,09,19,10.60
2012,05,24,09,20,10.60
2012,05,24,09,21,10.60
2012,05,24,09,22,10.60
2012,05,24,09,23,10.50
2012,05,24,09,24,10.50
2012,05,24,09,25,10.60
2012,05,24,09,26,10.60
2012,05,24,09,27,10.60
2012,05,24,09,28,10.60
2012,05,24,09,29,10.60
2012,05,24,09,30,10.60
2012,05,24,09,31,10.60
2012,05,24,09,32,10.60
2012,05,24,09,33,10.70
2012,05,24,09,34,10.70
2012,05,24,09,35,10.70
2012,05,24,09,36,10.80
2012,05,24,09,37,10.80
2012,05,24,09,38,10.80
2012,05,24,09,39,10.90
2012,05,24,09,40,10.90
2012,05,24,09,41,10.90
2012,05,24,09,42,10.90
2012,05,24,09,43,11.00
2012,05,24,09,44,11.10
2012,05,24,09,45,11.10
2012,05,24,09,46,11.10
2012,05,24,09,47,11.10
2012,05,24,09,48,11.10
2012,05,24,09,49,11.10
2012,05,24,09,50,11.10
2012,05,24,09,51,11.20
2012,05,24,09,52,11.20
2012,05,24,09,53,11.30
2012,05,24,09,54,11.30
2012,05,24,09,55,11.30
2012,05,24,09,56,11.30
2012,05,24,09,57,11.30
2012,05,24,09,58,11.30
2012,05,24,09,59,11.30
2012,05,24,10,00,11.30
2012,05,24,10,01,11.30
2012,05,24,10,02,11.30
2012,05,24,10,03,11.30
2012,05,24,10,04,11.40
2012,05,24,10,05,11.40
2012,05,24,10,06,11.40
2012,05,24,10,07,11.40
2012,05,24,10,08,11.40
2012,05,24,10,09,11.40
2012,05,24,10,10,11.40
2012,05,24,10,11,11.40
2012,05,24,10,12,11.50
2012,05,24,10,13,11.50
2012,05,24,10,14,11.50
2012,05,24,10,15,11.60
2012,05,24,10,16,11.60
2012,05,24,10,17,11.70
2012,05,24,10,18,11.80
2012,05,24,10,19,11.90
2012,05,24,10,20,12.00
2012,05,24,10,21,12.10
2012,05,24,10,22,12.10
2012,05,24,10,23,12.20
2012,05,24,10,24,12.20
2012,05,24,10,25,12.20
2012,05,24,10,26,12.30
2012,05,24,10,27,12.40
2012,05,24,10,28,12.40
2012,05,24,10,29,12.40
2012,05,24,10,30,12.40
2012,05,24,10,31,12.40
2012,05,24,10,32,12.50
2012,05,24,10,33,12.60
2012,05,24,10,34,12.70
2012,05,24,10,35,12.70
2012,05,24,10,36,12.60
2012,05,24,10,37,12.50
2012,05,24,10,38,12.50
2012,05,24,10,39,12.60
2012,05,24,10,40,12.70
2012,05,24,10,41,12.70
2012,05,24,10,42,12.80
2012,05,24,10,43,12.70
2012,05,24,10,44,12.70
2012,05,24,10,45,12.80
2012,05,24,10,46,12.70
2012,05,24,10,47,12.60
2012,05,24,10,48,12.60
2012,05,24,10,49,12.60
2012,05,24,10,50,12.70
2012,05,24,10,51,12.70
2012,05,24,10,52,12.80
2012,05,24,10,53,12.90
2012,05,24,10,54,13.00
2012,05,24,10,55,13.20
2012,05,24,10,56,13.30
2012,05,24,10,57,13.20
2012,05,24,10,58,13.00
2012,05,24,10,59,12.90
2012,05,24,11,00,12.80
2012,05,24,11,01,12.80
2012,05,24,11,02,12.80
2012,05,24,11,03,12.80
2012,05,24,11,04,12.80
2012,05,24,11,05,12.80
2012,05,24,11,06,12.80
2012,05,24,11,07,12.80
2012,05,24,11,08,12.80
2012,05,24,11,09,12.90
2012,05,24,11,10,13.00
2012,05,24,11,11,13.00
2012,05,24,11,12,13.00
2012,05,24,11,13,13.00
2012,05,24,11,14,13.00
2012,05,24,11,15,12.90
2012,05,24,11,16,12.80
2012,05,24,11,17,12.80
2012,05,24,11,18,12.90
2012,05,24,11,19,12.90
2012,05,24,11,20,13.00
2012,05,24,11,21,13.10
2012,05,24,11,22,13.10
2012,05,24,11,23,13.20
2012,05,24,11,24,13.30
2012,05,24,11,25,13.40
2012,05,24,11,26,13.50
2012,05,24,11,27,13.50
2012,05,24,11,28,13.50
2012,05,24,11,29,13.40
2012,05,24,11,30,13.30
2012,05,24,11,31,13.20
2012,05,24,11,32,13.20
2012,05,24,11,33,13.10
2012,05,24,11,34,13.20
2012,05,24,11,35,13.20
2012,05,24,11,36,13.30
2012,05,24,11,37,13.30
2012,05,24,11,38,13.30
2012,05,24,11,39,13.30
2012,05,24,11,40,13.40
2012,05,24,11,41,13.50
2012,05,24,11,42,13.50
2012,05,24,11,43,13.50
2012,05,24,11,44,13.60
2012,05,24,11,45,13.60
2012,05,24,11,46,13.70
2012,05,24,11,47,13.80
2012,05,24,11,48,13.90
2012,05,24,11,49,13.90
2012,05,24,11,50,14.00
2012,05,24,11,51,14.10
2012,05,24,11,52,14.10
2012,05,24,11,53,14.00
2012,05,24,11,54,13.90
2012,05,24,11,55,13.80
2012,05,24,11,56,13.70
2012,05,24,11,57,13.70
2012,05,24,11,58,13.60
2012,05,24,11,59,13.60
2012,05,24,12,00,13.50
2012,05,24,12,01,13.50
2012,05,24,12,02,13.50
2012,05,24,12,03,13.50
2012,05,24,12,04,13.50
2012,05,24,12,05,13.40
2012,05,24,12,06,13.40
2012,05,24,12,07,13.50
2012,05,24,12,08,13.40
2012,05,24,12,09,13.30
2012,05,24,12,10,13.30
2012,05,24,12,11,13.30
2012,05,24,12,12,13.30
2012,05,24,12,13,13.20
2012,05,24,12,14,13.20
2012,05,24,12,15,13.20
2012,05,24,12,16,13.20
2012,05,24,12,17,13.20
2012,05,24,12,18,13.30
2012,05,24,12,19,13.30
2012,05,24,12,20,13.30
2012,05,24,12,21,13.30
2012,05,24,12,22,13.30
2012,05,24,12,23,13.40
2012,05,24,12,24,13.40
2012,05,24,12,25,13.40
2012,05,24,12,26,13.40
2012,05,24,12,27,13.30
2012,05,24,12,28,13.30
2012,05,24,12,29,13.30
2012,05,24,12,30,13.30
2012,05,24,12,31,13.30
2012,05,24,12,32,13.20
2012,05,24,12,33,13.10
2012,05,24,12,34,13.00
2012,05,24,12,35,13.00
2012,05,24,12,36,13.00
2012,05,24,12,37,12.90
2012,05,24,12,38,12.90
2012,05,24,12,39,12.80
2012,05,24,12,40,12.80
2012,05,24,12,41,12.80
2012,05,24,12,42,12.80
2012,05,24,12,43,12.80
2012,05,24,12,44,12.80
2012,05,24,12,45,12.80
2012,05,24,12,46,12.90
2012,05,24,12,47,12.90
2012,05,24,12,48,12.90
2012,05,24,12,49,13.00
2012,05,24,12,50,13.00
2012,05,24,12,51,13.10
2012,05,24,12,52,13.10
2012,05,24,12,53,13.10
2012,05,24,12,54,13.20
2012,05,24,12,55,13.20
2012,05,24,12,56,13.30
2012,05,24,12,57,13.30
2012,05,24,12,58,13.30
2012,05,24,12,59,13.30
2012,05,24,13,00,13.30
2012,05,24,13,01,13.30
2012,05,24,13,02,13.20
2012,05,24,13,03,13.10
2012,05,24,13,04,13.10
2012,05,24,13,05,13.00
2012,05,24,13,06,13.00
2012,05,24,13,07,12.90
2012,05,24,13,08,12.90
2012,05,24,13,09,12.90
2012,05,24,13,10,12.90
2012,05,24,13,11,12.90
2012,05,24,13,12,12.90
2012,05,24,13,13,13.00
2012,05,24,13,14,13.00
2012,05,24,13,15,13.10
2012,05,24,13,16,13.10
2012,05,24,13,17,13.20
2012,05,24,13,18,13.20
2012,05,24,13,19,13.30
2012,05,24,13,20,13.30
2012,05,24,13,21,13.40
2012,05,24,13,22,13.40
2012,05,24,13,23,13.30
2012,05,24,13,24,13.30
2012,05,24,13,25,13.30
2012,05,24,13,26,13.30
2012,05,24,13,27,13.30
2012,05,24,13,28,13.20
2012,05,24,13,29,13.10
2012,05,24,13,30,13.10
2012,05,24,13,31,13.10
2012,05,24,13,32,13.10
2012,05,24,13,33,13.20
2012,05,24,13,34,13.20
2012,05,24,13,35,13.30
2012,05,24,13,36,13.40
2012,05,24,13,37,13.50
2012,05,24,13,38,13.60
2012,05,24,13,39,13.60
2012,05,24,13,40,13.70
2012,05,24,13,41,13.80
2012,05,24,13,42,13.80
2012,05,24,13,43,13.70
2012,05,24,13,44,13.70
2012,05,24,13,45,13.80
2012,05,24,13,46,13.90
2012,05,24,13,47,13.90
2012,05,24,13,48,14.00
2012,05,24,13,49,14.10
2012,05,24,13,50,14.20
2012,05,24,13,51,14.20
2012,05,24,13,52,14.30
2012,05,24,13,53,14.40
2012,05,24,13,54,14.60
2012,05,24,13,55,14.70
2012,05,24,13,56,14.80
2012,05,24,13,57,14.80
2012,05,24,13,58,14.90
2012,05,24,13,59,15.00
2012,05,24,14,00,15.10
2012,05,24,14,01,15.20
2012,05,24,14,02,15.20
2012,05,24,14,03,15.20
2012,05,24,14,04,15.20
2012,05,24,14,05,15.20
2012,05,24,14,06,15.10
2012,05,24,14,07,15.00
2012,05,24,14,08,15.00
2012,05,24,14,09,15.00
2012,05,24,14,10,15.10
2012,05,24,14,11,15.10
2012,05,24,14,12,15.10
2012,05,24,14,13,15.10
2012,05,24,14,14,15.10
2012,05,24,14,15,15.00
2012,05,24,14,16,14.90
2012,05,24,14,17,14.80
2012,05,24,14,18,14.80
2012,05,24,14,19,14.80
2012,05,24,14,20,14.80
2012,05,24,14,21,14.80
2012,05,24,14,22,14.80
2012,05,24,14,23,14.80
2012,05,24,14,24,14.70
2012,05,24,14,25,14.70
2012,05,24,14,26,14.70
2012,05,24,14,27,14.70
2012,05,24,14,28,14.80
2012,05,24,14,29,14.80
2012,05,24,14,30,14.80
2012,05,24,14,31,14.90
2012,05,24,14,32,15.00
2012,05,24,14,33,15.10
2012,05,24,14,34,15.10
2012,05,24,14,35,15.20
2012,05,24,14,36,15.30
2012,05,24,14,37,15.30
2012,05,24,14,38,15.40
2012,05,24,14,39,15.50
2012,05,24,14,40,15.60
2012,05,24,14,41,15.60
2012,05,24,14,42,15.50
2012,05,24,14,43,15.50
2012,05,24,14,44,15.50
2012,05,24,14,45,15.60
2012,05,24,14,46,15.70
2012,05,24,14,47,15.80
2012,05,24,14,48,15.80
2012,05,24,14,49,15.80
2012,05,24,14,50,15.70
2012,05,24,14,51,15.60
2012,05,24,14,52,15.60
2012,05,24,14,53,15.60
2012,05,24,14,54,15.60
2012,05,24,14,55,15.70
2012,05,24,14,56,15.60
2012,05,24,14,57,15.70
2012,05,24,14,58,15.80
2012,05,24,14,59,15.80
2012,05,24,15,00,15.80
2012,05,24,15,01,15.90
2012,05,24,15,02,15.90
2012,05,24,15,03,15.90
2012,05,24,15,04,15.80
2012,05,24,15,05,15.70
2012,05,24,15,06,15.60
2012,05,24,15,07,15.60
2012,05,24,15,08,15.70
2012,05,24,15,09,15.70
2012,05,24,15,10,15.80
2012,05,24,15,11,15.70
2012,05,24,15,12,15.70
2012,05,24,15,13,15.70
2012,05,24,15,14,15.70
2012,05,24,15,15,15.80
2012,05,24,15,16,15.80
2012,05,24,15,17,15.80
2012,05,24,15,18,15.80
2012,05,24,15,19,15.80
2012,05,24,15,20,15.70
2012,05,24,15,21,15.60
2012,05,24,15,22,15.50
2012,05,24,15,23,15.50
2012,05,24,15,24,15.50
2012,05,24,15,25,15.50
2012,05,24,15,26,15.60
2012,05,24,15,27,15.60
2012,05,24,15,28,15.60
2012,05,24,15,29,15.60
2012,05,24,15,30,15.70
2012,05,24,15,31,15.70
2012,05,24,15,32,15.80
2012,05,24,15,33,15.80
2012,05,24,15,34,15.80
2012,05,24,15,35,15.80
2012,05,24,15,36,15.80
2012,05,24,15,37,15.80
2012,05,24,15,38,15.80
2012,05,24,15,39,15.80
2012,05,24,15,40,15.70
2012,05,24,15,41,15.60
2012,05,24,15,42,15.50
2012,05,24,15,43,15.50
2012,05,24,15,44,15.60
2012,05,24,15,45,15.60
2012,05,24,15,46,15.70
2012,05,24,15,47,15.70
2012,05,24,15,48,15.60
2012,05,24,15,49,15.60
2012,05,24,15,50,15.50
2012,05,24,15,51,15.40
2012,05,24,15,52,15.30
2012,05,24,15,53,15.10
2012,05,24,15,54,15.00
2012,05,24,15,55,14.90
2012,05,24,15,56,14.80
2012,05,24,15,57,14.80
2012,05,24,15,58,14.80
2012,05,24,15,59,14.80
2012,05,24,16,00,14.80
2012,05,24,16,01,14.80
2012,05,24,16,02,14.80
2012,05,24,16,03,14.70
2012,05,24,16,04,14.70
2012,05,24,16,05,14.70
2012,05,24,16,06,14.70
2012,05,24,16,07,14.80
2012,05,24,16,08,14.80
2012,05,24,16,09,14.80
2012,05,24,16,10,14.70
2012,05,24,16,11,14.50
2012,05,24,16,12,14.40
2012,05,24,16,13,14.20
2012,05,24,16,14,14.20
2012,05,24,16,15,14.20
2012,05,24,16,16,14.20
2012,05,24,16,17,14.20
2012,05,24,16,18,14.20
2012,05,24,16,19,14.20
2012,05,24,16,20,14.30
2012,05,24,16,21,14.40
2012,05,24,16,22,14.40
2012,05,24,16,23,14.40
2012,05,24,16,24,14.40
2012,05,24,16,25,14.50
2012,05,24,16,26,14.50
2012,05,24,16,27,14.60
2012,05,24,16,28,14.60
2012,05,24,16,29,14.70
2012,05,24,16,30,14.70
2012,05,24,16,31,14.80
2012,05,24,16,32,14.80
2012,05,24,16,33,14.80
2012,05,24,16,34,14.80
2012,05,24,16,35,14.70
2012,05,24,16,36,14.60
2012,05,24,16,37,14.50
2012,05,24,16,38,14.50
2012,05,24,16,39,14.50
2012,05,24,16,40,14.60
2012,05,24,16,41,14.70
2012,05,24,16,42,14.60
2012,05,24,16,43,14.50
2012,05,24,16,44,14.50
2012,05,24,16,45,14.50
2012,05,24,16,46,14.50
2012,05,24,16,47,14.60
2012,05,24,16,48,14.70
2012,05,24,16,49,14.80
2012,05,24,16,50,14.70
2012,05,24,16,51,14.70
2012,05,24,16,52,14.70
2012,05,24,16,53,14.70
2012,05,24,16,54,14.60
2012,05,24,16,55,14.60
2012,05,24,16,56,14.50
2012,05,24,16,57,14.40
2012,05,24,16,58,14.30
2012,05,24,16,59,14.20
2012,05,24,17,00,14.20
2012,05,24,17,01,14.20
2012,05,24,17,02,14.00
2012,05,24,17,03,14.00
2012,05,24,17,04,14.00
2012,05,24,17,05,14.10
2012,05,24,17,06,14.20
2012,05,24,17,07,14.30
2012,05,24,17,08,14.30
2012,05,24,17,09,14.30
2012,05,24,17,10,14.30
2012,05,24,17,11,14.30
2012,05,24,17,12,14.40
2012,05,24,17,13,14.40
2012,05,24,17,14,14.40
2012,05,24,17,15,14.40
2012,05,24,17,16,14.30
2012,05,24,17,17,14.20
2012,05,24,17,18,14.30
2012,05,24,17,19,14.30
2012,05,24,17,20,14.40
2012,05,24,17,21,14.50
2012,05,24,17,22,14.50
2012,05,24,17,23,14.50
2012,05,24,17,24,14.50
2012,05,24,17,25,14.50
2012,05,24,17,26,14.40
2012,05,24,17,27,14.30
2012,05,24,17,28,14.20
2012,05,24,17,29,14.30
2012,05,24,17,30,14.30
2012,05,24,17,31,14.30
2012,05,24,17,32,14.30
2012,05,24,17,33,14.30
2012,05,24,17,34,14.30
2012,05,24,17,35,14.20
2012,05,24,17,36,14.20
2012,05,24,17,37,14.30
2012,05,24,17,38,14.30
2012,05,24,17,39,14.20
2012,05,24,17,40,14.20
2012,05,24,17,41,14.10
2012,05,24,17,42,14.00